EW6902 Weather Reports


time (UTC)temp
C
wind
direction
speed
KPH
gust
KPH
rain 1hr
cm
rain 24hr
cm
rain mn
cm
humidity
%
barometer
mb
20260510225715 26 0 0.0 0.0 0.00 0.00 0.00 37 1013.4
20260510225213 26 0 0.0 0.0 0.00 0.00 0.00 37 1013.5
20260510224503 26 0 0.0 0.0 0.00 0.00 0.00 37 1013.4
20260510224003 26 0 0.0 0.0 0.00 0.00 0.00 35 1013.4
20260510223503 27 0 0.0 0.0 0.00 0.00 0.00 36 1013.4
20260510223003 27 0 0.0 0.0 0.00 0.00 0.00 34 1013.5
20260510222503 27 0 0.0 0.0 0.00 0.00 0.00 34 1013.4
20260510222004 27 0 0.0 0.0 0.00 0.00 0.00 33 1013.4
20260510221714 27 0 0.0 0.0 0.00 0.00 0.00 31 1013.4
20260510221003 27 0 0.0 0.0 0.00 0.00 0.00 30 1013.4
20260510220503 27 0 0.0 3.2 0.00 0.00 0.00 31 1013.4
20260510220003 27 0 0.0 3.2 0.00 0.00 0.00 29 1013.4
20260510215503 27 0 0.0 0.0 0.00 0.00 0.00 33 1013.3
20260510215214 27 0 0.0 0.0 0.00 0.00 0.00 31 1013.3
20260510214504 27 0 0.0 0.0 0.00 0.00 0.00 32 1013.3
20260510214003 27 0 0.0 0.0 0.00 0.00 0.00 31 1013.3
20260510213503 27 0 0.0 0.0 0.00 0.00 0.00 29 1013.3
20260510213216 27 0 0.0 0.0 0.00 0.00 0.00 31 1013.3
20260510212504 28 0 0.0 0.0 0.00 0.00 0.00 28 1013.3
20260510212003 28 0 0.0 0.0 0.00 0.00 0.00 32 1013.3
20260510211503 27 0 0.0 3.2 0.00 0.00 0.00 31 1013.4
20260510211003 27 0 0.0 3.2 0.00 0.00 0.00 30 1013.3
20260510210503 27 0 0.0 0.0 0.00 0.00 0.00 30 1013.4
20260510210004 27 0 0.0 0.0 0.00 0.00 0.00 29 1013.4
20260510205716 27 0 0.0 0.0 0.00 0.00 0.00 31 1013.3
20260510205214 27 0 0.0 0.0 0.00 0.00 0.00 29 1013.4
20260510204503 27 0 0.0 0.0 0.00 0.00 0.00 28 1013.4
20260510204004 28 0 0.0 0.0 0.00 0.00 0.00 28 1013.5
20260510203504 28 0 0.0 0.0 0.00 0.00 0.00 30 1013.5
20260510203216 28 0 0.0 0.0 0.00 0.00 0.00 28 1013.5
20260510202714 28 0 0.0 0.0 0.00 0.00 0.00 30 1013.5
20260510202003 28 0 0.0 0.0 0.00 0.00 0.00 31 1013.5
20260510201503 28 0 0.0 1.6 0.00 0.00 0.00 30 1013.6
20260510201213 28 0 0.0 1.6 0.00 0.00 0.00 29 1013.6
20260510200503 28 0 0.0 4.8 0.00 0.00 0.00 31 1013.7
20260510200004 28 0 0.0 4.8 0.00 0.00 0.00 28 1013.7
20260510195503 28 0 0.0 1.6 0.00 0.00 0.00 32 1013.8
20260510195003 28 0 0.0 0.0 0.00 0.00 0.00 30 1013.8
20260510194713 28 0 0.0 3.2 0.00 0.00 0.00 27 1013.8
20260510194004 28 0 0.0 3.2 0.00 0.00 0.00 33 1013.9
20260510193503 28 0 0.0 3.2 0.00 0.00 0.00 30 1013.9
20260510193217 28 0 0.0 3.2 0.00 0.00 0.00 30 1013.9
20260510192503 28 0 0.0 1.6 0.00 0.00 0.00 32 1013.9
20260510192003 28 0 0.0 0.0 0.00 0.00 0.00 29 1013.8
20260510191504 28 0 0.0 0.0 0.00 0.00 0.00 29 1013.9
20260510191003 28 0 0.0 0.0 0.00 0.00 0.00 34 1013.9
20260510190503 28 0 0.0 1.6 0.00 0.00 0.00 32 1013.9
20260510190004 28 0 0.0 3.2 0.00 0.00 0.00 31 1013.9
20260510185712 28 0 0.0 3.2 0.00 0.00 0.00 36 1013.9
20260510185004 28 0 0.0 0.0 0.00 0.00 0.00 33 1014.0
20260510184503 28 0 0.0 0.0 0.00 0.00 0.00 32 1014.1
20260510184217 28 0 0.0 3.2 0.00 0.00 0.00 34 1014.1
20260510183503 28 0 0.0 3.2 0.00 0.00 0.00 31 1014.1
20260510183003 28 0 0.0 3.2 0.00 0.00 0.00 32 1014.2
20260510182715 28 0 0.0 3.2 0.00 0.00 0.00 31 1014.2
20260510182003 28 0 0.0 3.2 0.00 0.00 0.00 40 1014.1
20260510181503 27 0 0.0 3.2 0.00 0.00 0.00 34 1014.1
20260510181003 27 0 0.0 1.6 0.00 0.00 0.00 32 1014.3
20260510180503 27 0 0.0 1.6 0.00 0.00 0.00 31 1014.3
20260510180003 27 0 0.0 1.6 0.00 0.00 0.00 31 1014.3
20260510175713 27 0 0.0 0.0 0.00 0.00 0.00 35 1014.3
20260510175003 27 0 0.0 0.0 0.00 0.00 0.00 28 1014.3
20260510174503 27 0 0.0 0.0 0.00 0.00 0.00 30 1014.4
20260510174003 27 0 0.0 0.0 0.00 0.00 0.00 29 1014.5
20260510173715 27 0 0.0 1.6 0.00 0.00 0.00 27 1014.5
20260510173003 28 0 0.0 1.6 0.00 0.00 0.00 28 1014.6
20260510172503 28 0 0.0 1.6 0.00 0.00 0.00 33 1014.8
20260510172004 27 0 0.0 0.0 0.00 0.00 0.00 31 1014.8
20260510171503 27 0 0.0 0.0 0.00 0.00 0.00 35 1014.8
20260510171215 27 0 0.0 0.0 0.00 0.00 0.00 37 1014.9
20260510170503 27 0 0.0 0.0 0.00 0.00 0.00 35 1015.0
20260510170216 27 0 0.0 0.0 0.00 0.00 0.00 32 1014.9
20260510165503 27 0 0.0 0.0 0.00 0.00 0.00 34 1014.9
20260510165003 27 0 0.0 0.0 0.00 0.00 0.00 35 1014.9
20260510164503 26 0 0.0 0.0 0.00 0.00 0.00 36 1014.9
20260510164003 26 0 0.0 0.0 0.00 0.00 0.00 33 1015.0
20260510163716 26 0 0.0 0.0 0.00 0.00 0.00 35 1014.9
20260510163003 26 0 0.0 8.0 0.00 0.00 0.00 30 1015.0
20260510162503 26 0 0.0 4.8 0.00 0.00 0.00 33 1015.0
20260510162003 26 0 0.0 0.0 0.00 0.00 0.00 43 1014.9
20260510161504 26 0 0.0 0.0 0.00 0.00 0.00 37 1015.0
20260510161003 26 0 0.0 0.0 0.00 0.00 0.00 38 1015.1
20260510160503 26 0 0.0 0.0 0.00 0.00 0.00 40 1015.1
20260510160003 26 0 0.0 0.0 0.00 0.00 0.00 42 1015.1
20260510155714 26 0 0.0 1.6 0.00 0.00 0.00 45 1015.1
20260510155003 26 0 0.0 1.6 0.00 0.00 0.00 44 1015.1
20260510154503 26 0 0.0 0.0 0.00 0.00 0.00 41 1015.1
20260510154003 25 0 0.0 0.0 0.00 0.00 0.00 46 1015.1
20260510153504 25 0 0.0 0.0 0.00 0.00 0.00 45 1015.1
20260510153004 25 0 0.0 0.0 0.00 0.00 0.00 46 1015.1
20260510152504 25 0 0.0 1.6 0.00 0.00 0.00 44 1015.1
20260510152215 25 0 0.0 1.6 0.00 0.00 0.00 45 1015.1
20260510151503 25 0 0.0 0.0 0.00 0.00 0.00 46 1015.1
20260510151216 25 0 0.0 0.0 0.00 0.00 0.00 45 1015.0
20260510150503 24 0 0.0 0.0 0.00 0.00 0.00 52 1015.1
20260510150004 24 0 0.0 0.0 0.00 0.00 0.00 48 1015.1
20260510145503 24 0 0.0 0.0 0.00 0.00 0.00 50 1015.2
20260510145003 23 0 0.0 0.0 0.00 0.00 0.00 52 1015.3
20260510144503 23 0 0.0 0.0 0.00 0.00 0.00 58 1015.3
20260510144003 23 0 0.0 1.6 0.00 0.00 0.00 55 1015.2
20260510143503 22 0 0.0 1.6 0.00 0.00 0.00 54 1015.2
20260510143003 22 0 0.0 3.2 0.00 0.00 0.00 56 1015.2
20260510142713 22 0 0.0 3.2 0.00 0.00 0.00 58 1015.2
20260510142003 22 0 0.0 0.0 0.00 0.00 0.00 60 1015.2
20260510141503 22 0 0.0 1.6 0.00 0.00 0.00 60 1015.2
20260510141217 22 0 0.0 1.6 0.00 0.00 0.00 60 1015.1
20260510140503 21 0 0.0 0.0 0.00 0.00 0.00 68 1015.0
20260510140213 21 0 0.0 0.0 0.00 0.00 0.00 67 1015.0
20260510135503 21 0 0.0 0.0 0.00 0.00 0.00 68 1015.1
20260510135214 21 0 0.0 0.0 0.00 0.00 0.00 68 1015.1
20260510134503 20 0 0.0 0.0 0.00 0.00 0.00 72 1015.1
20260510134215 20 0 0.0 0.0 0.00 0.00 0.00 72 1015.0
20260510133503 20 0 0.0 0.0 0.00 0.00 0.00 75 1015.1
20260510133003 19 0 0.0 0.0 0.00 0.00 0.00 76 1015.0
20260510132503 18 0 0.0 0.0 0.00 0.00 0.00 83 1015.0
20260510132217 18 0 0.0 0.0 0.00 0.00 0.00 83 1015.0
20260510131503 18 0 0.0 0.0 0.00 0.00 0.00 86 1015.1
20260510131003 18 0 0.0 0.0 0.00 0.00 0.00 88 1015.0
20260510130715 17 0 0.0 0.0 0.00 0.00 0.00 89 1015.1
20260510130004 17 0 0.0 0.0 0.00 0.00 0.00 91 1015.0
20260510125503 17 0 0.0 0.0 0.00 0.00 0.00 94 1015.0
20260510125003 17 0 0.0 0.0 0.00 0.00 0.00 94 1015.0
20260510124503 16 0 0.0 0.0 0.00 0.00 0.00 94 1015.0
20260510124004 16 0 0.0 0.0 0.00 0.00 0.00 94 1015.0
20260510123503 16 0 0.0 0.0 0.00 0.00 0.00 94 1014.9
20260510123003 15 0 0.0 0.0 0.00 0.00 0.00 94 1014.8
20260510122714 15 0 0.0 0.0 0.00 0.00 0.00 94 1014.8
20260510122004 14 0 0.0 0.0 0.00 0.00 0.00 93 1014.6
20260510121503 14 0 0.0 0.0 0.00 0.00 0.00 93 1014.5
20260510121003 14 0 0.0 0.0 0.00 0.00 0.00 93 1014.4
20260510120503 14 0 0.0 0.0 0.00 0.00 0.00 93 1014.2
20260510120003 13 0 0.0 0.0 0.00 0.00 0.00 93 1014.1
20260510115504 13 0 0.0 0.0 0.00 0.00 0.00 92 1014.0
20260510115215 13 0 0.0 0.0 0.00 0.00 0.00 92 1014.0
20260510114503 13 0 0.0 0.0 0.00 0.00 0.00 92 1014.0
20260510114003 13 0 0.0 0.0 0.00 0.00 0.00 92 1013.9
20260510113503 13 0 0.0 0.0 0.00 0.00 0.00 92 1013.8
20260510113003 13 0 0.0 0.0 0.00 0.00 0.00 92 1013.7
20260510112715 13 0 0.0 0.0 0.00 0.00 0.00 92 1013.7
20260510112003 13 0 0.0 0.0 0.00 0.00 0.00 92 1013.6
20260510111503 13 0 0.0 0.0 0.00 0.00 0.00 92 1013.6
20260510111003 13 0 0.0 0.0 0.00 0.00 0.00 92 1013.6
20260510110503 13 0 0.0 0.0 0.00 0.00 0.00 92 1013.4
20260510110003 13 0 0.0 0.0 0.00 0.00 0.00 91 1013.3
20260510105503 13 0 0.0 0.0 0.00 0.00 0.00 91 1013.3
20260510105003 13 0 0.0 0.0 0.00 0.00 0.00 91 1013.2
20260510104503 13 0 0.0 0.0 0.00 0.00 0.00 92 1013.1
20260510104004 13 0 0.0 0.0 0.00 0.00 0.00 91 1012.9
20260510103503 13 0 0.0 0.0 0.00 0.00 0.00 91 1012.9
20260510103004 13 0 0.0 0.0 0.00 0.00 0.00 91 1012.8
20260510102503 13 0 0.0 0.0 0.00 0.00 0.00 91 1012.7
20260510102213 13 0 0.0 0.0 0.00 0.00 0.00 91 1012.7
20260510101503 13 0 0.0 0.0 0.00 0.00 0.00 91 1012.7
20260510101003 13 0 0.0 0.0 0.00 0.00 0.00 91 1012.6
20260510100503 13 0 0.0 0.0 0.00 0.00 0.00 91 1012.5
20260510100215 13 0 0.0 0.0 0.00 0.00 0.00 91 1012.5
20260510095503 13 0 0.0 0.0 0.00 0.00 0.00 91 1012.4
20260510095216 13 0 0.0 0.0 0.00 0.00 0.00 91 1012.3
20260510094714 14 0 0.0 0.0 0.00 0.00 0.00 91 1012.3
20260510094004 14 0 0.0 0.0 0.00 0.00 0.00 91 1012.2
20260510093715 14 0 0.0 0.0 0.00 0.00 0.00 91 1012.2
20260510093003 14 0 0.0 0.0 0.00 0.00 0.00 91 1012.0
20260510092503 14 0 0.0 0.0 0.00 0.00 0.00 91 1012.0
20260510092003 14 0 0.0 0.0 0.00 0.00 0.00 91 1011.9
20260510091717 14 0 0.0 0.0 0.00 0.00 0.00 91 1011.9
20260510091003 14 0 0.0 0.0 0.00 0.00 0.00 91 1012.0
20260510090713 14 0 0.0 0.0 0.00 0.00 0.00 91 1011.9
20260510090004 14 0 0.0 0.0 0.00 0.00 0.00 91 1011.8
20260510085714 14 0 0.0 0.0 0.00 0.00 0.00 91 1011.8
20260510085217 14 0 0.0 0.0 0.00 0.00 0.00 91 1011.8
20260510084503 14 0 0.0 0.0 0.00 0.00 0.00 91 1011.7
20260510084003 14 0 0.0 0.0 0.00 0.00 0.00 91 1011.7
20260510083503 14 0 0.0 0.0 0.00 0.00 0.00 90 1011.6
20260510083003 14 0 0.0 0.0 0.00 0.00 0.00 91 1011.5
20260510082503 14 0 0.0 0.0 0.00 0.00 0.00 91 1011.4
20260510082003 14 0 0.0 0.0 0.00 0.00 0.00 91 1011.4
20260510081503 15 0 0.0 0.0 0.00 0.00 0.00 90 1011.4
20260510081004 15 0 0.0 0.0 0.00 0.00 0.00 90 1011.4
20260510080714 15 0 0.0 0.0 0.00 0.00 0.00 90 1011.4
20260510080004 15 0 0.0 0.0 0.00 0.00 0.00 91 1011.3
20260510075503 15 0 0.0 0.0 0.00 0.00 0.00 91 1011.3
20260510075003 15 0 0.0 0.0 0.00 0.00 0.00 91 1011.4
20260510074503 15 0 0.0 0.0 0.00 0.00 0.00 91 1011.3
20260510074213 15 0 0.0 0.0 0.00 0.00 0.00 90 1011.2
20260510073503 15 0 0.0 0.0 0.00 0.00 0.00 90 1011.1
20260510073003 15 0 0.0 0.0 0.00 0.00 0.00 90 1011.0
20260510072503 15 0 0.0 0.0 0.00 0.00 0.00 90 1011.0
20260510072003 15 0 0.0 0.0 0.00 0.00 0.00 90 1011.0
20260510071503 15 0 0.0 0.0 0.00 0.00 0.00 90 1011.0
20260510071004 15 0 0.0 0.0 0.00 0.00 0.00 90 1011.0
20260510070504 15 0 0.0 0.0 0.00 0.00 0.00 90 1011.0
20260510070004 15 0 0.0 0.0 0.00 0.00 0.00 91 1011.0
20260510065503 15 0 0.0 0.0 0.00 0.00 0.00 91 1011.0
20260510065003 16 0 0.0 0.0 0.00 0.00 0.00 91 1011.0
20260510064503 16 0 0.0 0.0 0.00 0.00 0.00 91 1011.0
20260510064003 16 0 0.0 0.0 0.00 0.00 0.00 91 1011.0
20260510063503 15 0 0.0 0.0 0.00 0.00 0.00 91 1011.0
20260510063003 15 0 0.0 0.0 0.00 0.00 0.00 91 1011.1
20260510062503 15 0 0.0 0.0 0.00 0.00 0.00 90 1011.0
20260510062216 15 0 0.0 0.0 0.00 0.00 0.00 90 1011.0
20260510061503 15 0 0.0 0.0 0.00 0.00 0.00 90 1011.0
20260510061003 15 0 0.0 0.0 0.00 0.00 0.00 90 1010.9
20260510060715 15 0 0.0 0.0 0.00 0.00 0.00 90 1010.9
20260510060213 15 0 0.0 0.0 0.00 0.00 0.00 90 1011.0
20260510055503 16 0 0.0 0.0 0.00 0.00 0.00 90 1011.0
20260510055003 16 0 0.0 0.0 0.00 0.00 0.00 90 1011.1
20260510054717 16 0 0.0 0.0 0.00 0.00 0.00 90 1011.1
20260510054003 16 0 0.0 0.0 0.00 0.00 0.00 90 1011.1
20260510053503 16 0 0.0 0.0 0.00 0.00 0.00 89 1011.1
20260510053004 16 0 0.0 0.0 0.00 0.00 0.00 90 1011.1
20260510052503 16 0 0.0 0.0 0.00 0.00 0.00 90 1011.1
20260510052003 16 0 0.0 0.0 0.00 0.00 0.00 90 1011.2
20260510051503 16 0 0.0 0.0 0.00 0.00 0.00 90 1011.2
20260510051003 16 0 0.0 0.0 0.00 0.00 0.00 90 1011.2
20260510050503 16 0 0.0 0.0 0.00 0.00 0.00 90 1011.3
20260510050004 16 0 0.0 0.0 0.00 0.00 0.00 90 1011.4
20260510045716 16 0 0.0 0.0 0.00 0.00 0.00 89 1011.5
20260510045004 16 0 0.0 0.0 0.00 0.00 0.00 89 1011.5
20260510044503 16 0 0.0 0.0 0.00 0.00 0.00 89 1011.4
20260510044003 16 0 0.0 0.0 0.00 0.00 0.00 89 1011.4
20260510043504 16 0 0.0 0.0 0.00 0.00 0.00 89 1011.3
20260510043003 16 0 0.0 0.0 0.00 0.00 0.00 89 1011.4
20260510042503 16 0 0.0 0.0 0.00 0.00 0.00 89 1011.4
20260510042217 16 0 0.0 0.0 0.00 0.00 0.00 89 1011.4
20260510041503 16 0 0.0 0.0 0.00 0.00 0.00 89 1011.5
20260510041003 16 0 0.0 0.0 0.00 0.00 0.00 88 1011.5
20260510040504 16 0 0.0 0.0 0.00 0.00 0.00 88 1011.4
20260510040015 16 0 0.0 0.0 0.00 0.00 0.00 88 1011.4
20260510035503 16 0 0.0 0.0 0.00 0.00 0.00 88 1011.4
20260510035004 16 0 0.0 0.0 0.00 0.00 0.00 88 1011.5
20260510034503 16 0 0.0 0.0 0.00 0.00 0.00 88 1011.5
20260510034003 16 0 0.0 0.0 0.00 0.00 0.00 88 1011.4
20260510033503 16 0 0.0 0.0 0.00 0.00 0.00 88 1011.5
20260510033003 16 0 0.0 0.0 0.00 0.00 0.00 88 1011.6
20260510032503 16 0 0.0 0.0 0.00 0.00 0.00 88 1011.5
20260510032003 16 0 0.0 0.0 0.00 0.00 0.00 87 1011.4
20260510031503 17 0 0.0 0.0 0.00 0.00 0.00 87 1011.5
20260510031003 17 0 0.0 0.0 0.00 0.00 0.00 87 1011.5
20260510030717 17 0 0.0 0.0 0.00 0.00 0.00 87 1011.4
20260510030004 17 0 0.0 0.0 0.00 0.00 0.00 87 1011.4
20260510025503 17 0 0.0 0.0 0.00 0.00 0.00 86 1011.4
20260510025004 17 0 0.0 0.0 0.00 0.00 0.00 86 1011.4
20260510024713 17 0 0.0 0.0 0.00 0.00 0.00 86 1011.4
20260510024003 17 0 0.0 0.0 0.00 0.00 0.00 86 1011.4
20260510023503 17 0 0.0 0.0 0.00 0.00 0.00 86 1011.3
20260510023003 17 0 0.0 0.0 0.00 0.00 0.00 86 1011.2
20260510022503 17 0 0.0 0.0 0.00 0.00 0.00 86 1011.2
20260510022003 18 0 0.0 0.0 0.00 0.00 0.00 85 1011.1
20260510021503 18 0 0.0 0.0 0.00 0.00 0.00 85 1011.2
20260510021003 18 0 0.0 0.0 0.00 0.00 0.00 85 1011.1
20260510020503 18 0 0.0 0.0 0.00 0.00 0.00 85 1011.1
20260510020004 18 0 0.0 0.0 0.00 0.00 0.00 85 1011.1
20260510015504 18 0 0.0 0.0 0.00 0.00 0.00 85 1011.1
20260510015216 18 0 0.0 0.0 0.00 0.00 0.00 85 1011.0
20260510014503 18 0 0.0 0.0 0.00 0.00 0.00 84 1010.9
20260510014217 18 0 0.0 0.0 0.00 0.00 0.00 84 1010.8
20260510013503 18 0 0.0 0.0 0.00 0.00 0.00 84 1010.8
20260510013213 18 0 0.0 0.0 0.00 0.00 0.00 84 1010.7
20260510012504 18 0 0.0 0.0 0.00 0.00 0.00 83 1010.6
20260510012003 18 0 0.0 0.0 0.00 0.00 0.00 83 1010.6
20260510011504 18 0 0.0 0.0 0.00 0.00 0.00 83 1010.5
20260510011004 18 0 0.0 0.0 0.00 0.00 0.00 82 1010.3
20260510010503 19 0 0.0 0.0 0.00 0.00 0.00 82 1010.3
20260510010003 19 0 0.0 0.0 0.00 0.00 0.00 82 1010.2
20260510005503 19 0 0.0 0.0 0.00 0.00 0.00 81 1010.2
20260510005003 19 0 0.0 0.0 0.00 0.00 0.00 81 1010.2
20260510004503 20 0 0.0 0.0 0.00 0.00 0.00 80 1010.1
20260510004003 20 0 0.0 0.0 0.00 0.00 0.00 80 1009.9
20260510003503 20 0 0.0 0.0 0.00 0.00 0.00 79 1009.8
20260510003214 20 0 0.0 0.0 0.00 0.00 0.00 79 1009.8
20260510002717 20 0 0.0 0.0 0.00 0.00 0.00 79 1009.6
20260510002215 20 0 0.0 0.0 0.00 0.00 0.00 78 1009.7
20260510001504 20 0 0.0 0.0 0.00 0.00 0.00 79 1009.4
20260510001003 20 0 0.0 0.0 0.00 0.00 0.00 78 1009.5
20260510000504 20 0 0.0 0.0 0.00 0.00 0.00 77 1009.5
20260510000004 21 0 0.0 0.0 0.00 0.00 0.00 77 1009.4
20260509235503 21 0 0.0 0.0 0.00 0.00 0.00 77 1009.4
20260509235003 21 0 0.0 0.0 0.00 0.00 0.00 76 1009.2
20260509234715 21 0 0.0 0.0 0.00 0.00 0.00 77 1009.2
20260509234003 21 0 0.0 1.6 0.00 0.00 0.00 77 1009.2
20260509233503 21 0 0.0 1.6 0.00 0.00 0.00 76 1009.2
20260509233004 21 0 0.0 0.0 0.00 0.00 0.00 76 1009.2
20260509232503 21 0 0.0 0.0 0.00 0.00 0.00 75 1009.2
20260509232003 21 0 0.0 0.0 0.00 0.00 0.00 75 1009.2
20260509231503 22 0 0.0 0.0 0.00 0.00 0.00 75 1009.2
20260509231003 22 0 0.0 0.0 0.00 0.00 0.00 74 1009.2
20260509230714 22 0 0.0 0.0 0.00 0.00 0.00 73 1009.2
20260509230004 22 0 0.0 0.0 0.00 0.00 0.00 72 1009.1